www.pogodaiklimat.ru

Погода и климат >> Архив погоды >> Россия >> Мурманская область >> Сосновец Остров


АРХИВ ПОГОДЫ на Сосновец Острове

Время (UTC), дата Ветер
(напр.,м/с)
 
Видим.   Явления Облачность Т
(С)
Тd
(С)
f
(%)
Тe
(С)
Тes
(С)
Комфортность P
(гПа)
Po
(гПа)
Тmin
(С)
Tmax
(С)
R
(мм)
R24
(мм)
S
(см)
00 15.09 С 13-16
{18}
4000 м слаб. ливневой дождь 10/10 300 м
[Cb cap]
+8.3 +6.9 91 +2 +2 992.5 990.4
03 15.09 С 13-16
{17}
4000 м слаб. ливневой дождь 10/10 300 м
[Cb cap]
+8.5 +7.0 90 +3 +3 991.2 989.0 +8.1 1
06 15.09 С 11-14
{17}
4000 м слаб. ливневой дождь 10/10 300 м
[Cb cap]
+8.9 +7.4 90 +4 +4 990.3 988.1
09 15.09 С 11-14
{15}
4000 м слаб. дождь 10/10 300 м
[Frnb Ns]
+9.4 +7.8 90 +4 +4 989.6 987.5
12 15.09 С 10-12
{15}
4000 м слаб. дождь 10/10 300 м
[Frnb Ns]
+9.7 +8.2 90 +5 +5 989.2 987.1
15 15.09 СЗ 8-11
{14}
4000 м слаб. дождь 10/10 300 м
[Frnb Ns]
+9.1 +7.5 90 +5 +5 988.5 986.4 +9.8 0.9
18 15.09 С 7
{11}
4000 м слаб. дождь 10/0 300 м
[As op]
+8.5 +7.0 90 +4 +4 987.6 985.5
21 15.09 СЗ 7
{11}
20 км {дождь} 10/10 600 м
[Sc]
+8.0 +6.1 88 +3 +3 986.4 984.3
00 16.09 С 5 20 км {дождь} 10/10 600 м
[Sc]
+8.1 +7.2 94 +4 +4 985.4 983.3
03 16.09 С 7-10
{10}
20 км 9/8 600 м
[Sc Ac trans]
+8.3 +6.9 91 +4 +4 985.4 983.3 +7.7 0.4
06 16.09 СВ 7
{11}
20 км 8/8 600 м
[Sc]
+9.3 +7.1 86 +5 +5 985.3 983.2
09 16.09 СВ 10-14
{14}
20 км 8/8 600 м
[Sc]
+9.7 +6.9 83 +5 +5 986.0 983.9
12 16.09 СВ 9-12
{14}
20 км 9/9 600 м
[Sc]
+9.4 +5.8 78 +5 +5 986.9 984.8
15 16.09 С 9-13
{14}
20 км 9/9 600 м
[Sc]
+8.4 +5.8 84 +4 +4 987.4 985.3 +10.1
18 16.09 С 9-12
{14}
4000 м слаб. ливневой дождь 10/10 300 м
[Cb cap]
+7.8 +6.4 91 +3 +3 987.6 985.5
21 16.09 С 10-14
{16}
4000 м слаб. ливневой дождь 10/10 300 м
[Cb cap]
+8.0 +6.1 88 +3 +3 988.0 985.9
00 17.09 С 12-15
{17}
4000 м слаб. ливневой дождь 10/10 300 м
[Cb cap]
+7.6 +5.7 88 +2 +2 988.6 986.5
03 17.09 С 11-15
{17}
20 км {ливн. осадки} 10/10 300 м
[Sc]
+7.5 +6.1 91 +2 +2 989.4 987.3 +7.4 0.8
06 17.09 СВ 12-16
{17}
20 км {ливн. осадки} 9/9 300 м
[Sc]
+7.5 +5.4 87 +2 +2 990.8 988.7
09 17.09 С 12-16
{18}
20 км 9/9 600 м
[Sc]
+7.4 +4.5 82 +1 +1 992.9 990.8
12 17.09 СВ 11-15
{18}
20 км 8/8 600 м
[Sc Ac trans]
+7.0 +3.1 76 +1 +1 995.0 992.9
15 17.09 С 10-15
{17}
20 км 3/3 600 м
[Sc]
+5.7 +1.8 76 -0 -0 996.5 994.3 +8.1
18 17.09 С 8-11
{15}
20 км 3/3 600 м
[Sc Ac trans]
+3.5 +1.5 87 -3 -3 997.3 995.1
21 17.09 С 8-11
{12}
20 км {ливн. осадки} 4/3 600 м
[Sc Ac trans]
+3.6 +1.3 85 -3 -3 997.9 995.7
00 18.09 С 8-10
{11}
20 км {ливн. осадки} 3/1 600 м
[Sc Ac trans]
+2.3 +0.4 87 -5 -5 998.8 996.6
03 18.09 СЗ 9-11
{13}
20 км 3/1 600 м
[Sc Ac trans]
+1.7 -0.3 87 -6 -6 999.3 997.1 +1.7 0.1
06 18.09 СЗ 9-11
{11}
20 км 1/1 600 м
[Sc]
+2.8 +0.7 86 -4 -4 999.9 997.7 +1.2
09 18.09 СЗ 8-10
{11}
20 км 3/3 600 м
[Sc]
+5.2 +0.8 73 -0 0 1001.0 998.9
12 18.09 СЗ 4
{10}
20 км 8/8 600 м
[Sc]
+7.4 +0.5 62 +4 +5 1001.7 999.5
15 18.09 СЗ 6
{11}
20 км 3/3 600 м
[Sc]
+5.1 +1.7 79 0 0 1002.3 1000.1 +7.6
18 18.09 СЗ 6 20 км 1/1 600 м
[Sc]
+2.6 +0.7 87 -3 -3 1002.9 1000.7
21 18.09 СЗ 8
{10}
20 км 3/3 600 м
[Sc]
+2.3 +0.3 87 -5 -5 1003.3 1001.1
00 19.09 СЗ 8-11
{11}
20 км 3/3 600 м
[Sc]
+1.0 -0.4 90 -6 -6 1003.8 1001.6
03 19.09 СЗ 7
{13}
20 км 3/3 600 м
[Sc]
+1.9 -0.5 84 -5 -5 1004.1 1001.9 +1.0
06 19.09 СЗ 9-12
{12}
20 км 3/3 600 м
[Sc]
+4.0 -0.2 74 -2 -2 1004.2 1002.0
09 19.09 СЗ 6
{13}
20 км 4/4 600 м
[Sc]
+5.4 -0.5 66 +1 +2 1005.0 1002.8
12 19.09 СЗ 7
{11}
20 км 8/8 600 м
[Sc]
+5.9 -0.4 64 +1 +1 1005.5 1003.4
15 19.09 СЗ 3
{11}
20 км 6/5 600 м
[Sc Ac trans]
+5.4 -1.1 63 +2 +2 1005.8 1003.6 +6.5
18 19.09 З 3 20 км 4/3 600 м
[Sc Ac trans]
+2.4 -1.6 75 -2 -2 1005.5 1003.3
21 19.09 З 5 20 км 3/1 600 м
[Sc Ac trans]
+1.4 -1.5 81 -4 -4 1004.6 1002.4
00 20.09 З 5 20 км 3/0
[Ac trans]
+1.0 -1.9 81 -5 -5 1004.0 1001.8
03 20.09 З 5 20 км 3/0
[Ac trans]
+1.0 -1.9 81 -5 -5 1004.0 1001.8 -0.1
06 20.09 ЮЗ 6 20 км 3/0
[Ac trans]
+2.8 -0.7 78 -3 -3 1001.0 998.8
09 20.09 ЮЗ 9-12
{13}
20 км 9/9 600 м
[Sc]
+4.7 -0.5 69 -1 -1 1000.0 997.9
12 20.09 З 8-11
{12}
20 км 9/9 600 м
[Sc]
+5.2 +0.4 71 -0 -0 999.4 997.2
15 20.09 З 8-10
{12}
4000 м слаб. ливневой дождь 10/10 300 м
[Cb cap]
+5.0 +2.0 81 -1 -1 997.9 995.7 +5.5 0.1
18 20.09 З 4
{12}
20 км {ливн. осадки} 6/6 600 м
[Sc]
+3.6 +1.8 88 -1 -1 997.1 994.9
21 20.09 СЗ 8-10
{10}
20 км 6/6 600 м
[Sc]
+3.6 +1.8 88 -3 -3 997.5 995.4
00 21.09 СЗ 9-11
{12}
20 км 8/8 600 м
[Sc]
+2.9 +0.6 85 -4 -4 998.3 996.1
03 21.09 СЗ 9-10
{12}
20 км 1/1 600 м
[Sc]
+2.1 +0.3 88 -5 -5 998.9 996.7 +2.1 0.3
06 21.09 СЗ 9-10
{12}
20 км 4/3 600 м
[Sc Ac trans]
+3.3 +1.3 87 -4 -3 999.8 997.6 +1.9
09 21.09 СЗ 6
{10}
20 км 4/4 600 м
[Sc]
+6.3 +0.8 68 +2 +3 1000.4 998.3
12 21.09 СЗ 7 20 км {ливн. осадки} 8/6 300 м
[Cb calv Ac trans]
+5.3 +1.0 74 0 0 1000.9 998.7
15 21.09 СЗ 3 20 км в посл. час ливневой дождь 8/8 300 м
[Cb calv]
+3.8 +1.4 84 0 0 1001.0 998.8 +6.9 0.3
18 21.09 С 6 20 км {ливн. осадки} 4/4 600 м
[Sc]
+2.7 +0.9 88 -3 -3 1001.2 999.0
21 21.09 С 8 20 км 4/4 600 м
[Sc]
+1.8 +0.1 88 -5 -5 1001.5 999.3

 

Местоположение метеостанции Сосновец Остров (Мурманская область, Россия): широта 66.48 долгота 40.68 высота над уровнем моря 18 м.

В архиве по умолчанию представлена погода на Сосновец Острове за последнюю неделю. Архивные данные за месяц целиком и за предыдущие месяцы, начиная с января 2011 года, Вы можете получить, выбрав интересующий диапазон дат из раскрывающегося списка и нажав кнопку "Ввод!".


*Определитесь, кто Вы:
робот инопланетянин человек

Внимание! Время в таблицах - всемирное. Для получения местного времени необходимо прибавить поправку, которая равна 3 ч.

Смотрите также архив погоды в соседних городах и на ближайших метеорологических станциях:

Погода в Пялице (Мурманская область, Россия) (61 км)
Погода на Моржовец Острове (Архангельская область, Россия) (84 км)
Погода в Каневке (Мурманская область, Россия) (85 км)
Погода в Абрамовском маяке (Архангельская область, Россия) (115 км)
Погода в Зимнегорском Маяке (Архангельская область, Россия) (121 км)
Погода в Кепино (Архангельская область, Россия) (133 км)
Погода на Чаваньга реке (Мурманская область, Россия) (138 км)
Погода в Мезене (Архангельская область, Россия) (173 км)
Погода в Неси (Ненецкий АО, Россия) (178 км)
Погода в Иоканьге (Мурманская область, Россия) (182 км)

Пояснения к столбцам:

Ветер - указаны скорость ветра в м/с - средняя за 10 мин, порывы в срок и между сроками (в фигурных скобках) и направление, откуда дует ветер: С - северный, СВ - северо-восточный, В - восточный, ЮВ - юго-восточный, Ю - южный, ЮЗ - юго-западный, З - западный, СЗ - северо-западный.
Видимость - горизонтальная дальность видимости в метрах или километрах. При видимости от 1 до 10 км при отсутствии осадков обычно наблюдается дымка, при ухудшении видимости до 1 км и менее - туман. В сухую погоду видимость может ухудшаться дымом, пылью или мглою.
Явления - указаны атмосферные явления, наблюдавшиеся в срок или в последний час перед сроком; фигурными скобками обозначены явления, наблюдавшиеся между сроками (за 1-3 часа до срока); квадратными скобками обозначены град или гололедные отложения с указанием их диаметра в мм.
Облачность - указаны через наклонную черту общая и нижняя облачность в баллах и высота нижней границы облаков в метрах; квадратными скобками обозначены формы облаков: Ci - перистые, Cs - перисто-слоистые, Cc - перисто-кучевые, Ac - высококучевые, As - высокослоистые, Sc - слоисто-кучевые, Ns - слоисто-дождевые, Cu - кучевые, Cb - кучево-дождевые. Подробнее классификацию облаков см. в Атласе облаков (PDF).
T - Температура воздуха - температура, измеренная на высоте 2 м над землей.
Td - Температура точки росы - температура, при понижении до которой содержащийся в воздухе водяной пар достигнет насыщения.
f - Относительная влажность воздуха - влажноcть воздуха, измеренная на высоте 2 м над землей.
Te - Эффективная температура - температура, которую ощущает одетый по сезону человек в тени. Характеристика душности погоды. При расчете учитывается влияние влажности воздуха и скорости ветра на теплоощущения человека.
Tes - Эффективная температура на солнце - температура, которую ощущает человек, с поправкой на солнечный нагрев. Характеристика знойности погоды. Зависит от высоты солнца над горизонтом, облачности и скорости ветра. Ночью, в пасмурную погоду, а также при ветре 12 м/с и более поправка равна нулю.
P - Атмосферное давление - приведенное к уровню моря атмосферное давление.
Po - Атмосферное давление - измеренное на уровне метеостанции атмосферное давление.
Tmin - Минимальная температура - минимум температуры воздуха на высоте 2 м над землей.
Tmax - Максимальная температура - максимум температуры воздуха на высоте 2 м над землей.
R - Количество осадков - Количество выпавших осадков за период времени, мм. При наведении курсора мыши на число - период времени, за который выпало указанное количество осадков.
R24 - Количество осадков - Количество выпавших осадков за 24 часа, мм.
S - Снежный покров - Высота снежного покрова, см. При наведении курсора мыши на число - состояние снежного покрова и степень покрытия местности в баллах.